Dewpoint
13 14 16 17 17 18 18 17 16 17 17 16 13 13 15 16 16 16 14 13 12 12 13 13 10 8 7 6 7 8 8 8 8 8 8 10 10 11 11 11 12 12 11 10 11 10 8 5 11
14 16 17 17 19 19 18 16 17 16 15 14 14 15 15 16 16 15 15 13 12 11 12 10 9 7 6 7 9 8 8 10 8 8 13 15 10 10 14 12 13 12 11 11 12 13 12 6 11
15 16 17 17 18 19 18 16 15 14 14 14 15 15 16 16 16 15 13 12 10 9 9 9 8 7 6 7 10 7 8 10 9 9 15 11 9 9 10 10 11 12 12 12 13 12 12 9 12
16 17 17 18 18 17 16 15 13 13 14 15 15 15 15 16 15 14 12 11 8 8 9 10 9 6 6 7 7 7 7 8 10 12 14 10 10 12 12 12 13 13 13 14 14 13 11 11 10
17 16 16 17 17 16 15 15 13 14 14 15 15 15 16 15 15 13 12 10 8 11 11 10 8 6 6 6 7 6 7 8 10 10 11 11 12 12 12 11 11 11 10 12 12 11 11 11 11
17 15 17 18 17 15 14 16 15 14 15 14 15 15 16 15 14 13 14 11 10 11 12 12 12 7 7 6 7 7 9 8 10 11 10 11 11 12 13 12 11 10 10 10 10 11 11 11 12
14 15 16 16 16 16 16 14 15 15 15 15 15 15 16 14 13 15 15 14 11 11 12 12 10 7 7 6 7 8 9 9 11 10 11 10 11 12 12 12 11 10 10 10 10 11 11 12 12
14 14 16 17 17 17 14 16 15 15 15 15 14 15 15 13 15 16 16 15 14 12 11 11 7 6 6 7 7 9 9 11 11 10 10 10 11 12 12 12 11 10 11 11 10 10 13 13 12
14 16 17 17 16 16 13 15 15 14 15 15 15 14 14 13 15 16 16 15 15 13 11 9 6 6 6 7 7 9 11 11 11 10 13 12 12 12 13 12 12 12 12 13 11 9 12 13 13
16 17 16 13 12 12 13 14 14 15 15 15 15 14 13 14 15 15 15 14 15 14 12 7 6 6 5 6 7 10 11 11 12 13 14 14 13 11 12 13 12 12 11 13 14 11 11 13 13
15 16 14 12 12 12 12 13 15 15 16 15 16 15 12 11 14 15 15 15 15 13 11 7 6 5 4 5 7 9 12 10 8 11 13 13 14 12 12 12 11 12 13 13 13 14 14 15 14
14 13 12 11 10 11 11 10 15 15 15 15 14 14 12 12 14 14 16 16 16 14 11 7 5 5 4 5 6 12 13 11 13 12 10 13 13 13 12 13 11 13 14 13 14 14 13 12 12
12 12 11 11 10 10 8 10 14 15 15 15 15 14 12 13 14 14 15 16 15 15 14 6 6 5 5 7 10 13 13 13 13 14 13 14 14 14 15 14 14 14 13 13 13 12 12 12 12
10 11 10 11 10 10 11 10 12 16 16 15 15 15 15 14 15 15 15 15 15 15 13 7 7 7 7 12 12 13 13 14 14 14 11 11 13 14 14 14 13 14 14 14 13 13 13 13 12
5 8 9 10 10 10 11 11 16 16 16 15 15 15 16 15 15 15 15 15 15 14 12 10 10 9 12 12 13 14 14 14 14 15 14 14 13 13 14 14 15 14 14 14 13 11 11 12 11
5 6 10 10 11 11 9 12 15 16 15 16 15 15 15 15 13 15 15 14 14 14 12 11 12 11 12 12 13 14 15 13 14 14 14 14 13 11 14 15 13 14 15 14 13 12 12 11 11
4 7 8 10 10 11 11 11 15 16 15 15 15 15 15 14 13 14 14 14 14 13 13 12 13 12 12 13 11 14 14 14 13 13 12 13 13 11 13 13 14 13 14 13 13 14 13 11 10
5 8 7 8 10 10 12 10 14 15 15 15 15 15 15 14 14 14 14 13 13 13 13 12 12 13 12 12 10 13 13 13 13 13 13 13 14 13 12 15 13 14 14 14 13 13 11 11 10
2 5 7 6 6 11 10 11 11 14 14 15 15 15 15 15 13 14 14 12 13 13 13 13 12 13 12 12 12 11 14 13 13 14 14 14 14 14 13 14 14 15 15 15 14 12 11 11 11
-1 2 5 6 5 7 9 11 10 13 14 14 15 15 15 15 15 14 13 13 12 13 13 13 12 13 13 13 12 10 12 12 13 13 14 14 14 14 14 13 15 13 15 15 13 11 12 11 11
-1 1 1 7 5 3 7 9 12 11 13 14 14 14 14 13 14 14 14 12 12 13 13 13 12 12 12 13 13 12 9 11 11 13 14 14 14 14 13 13 13 14 15 15 14 13 13 10 10
1 -2 -0 3 6 8 5 10 8 11 13 13 13 13 13 12 13 14 14 13 14 14 13 13 11 11 12 12 12 12 10 8 8 10 13 14 14 15 14 13 13 15 15 15 15 13 13 11 11
0 -2 -0 2 6 6 6 8 7 11 15 13 12 12 11 13 12 12 13 13 14 13 13 12 11 11 12 12 12 11 12 7 7 10 13 13 13 14 13 14 13 14 15 15 16 12 14 13 11
-1 1 2 2 4 7 6 6 7 13 14 13 11 12 10 13 12 12 12 13 13 13 12 12 11 11 12 12 12 12 11 10 8 11 14 14 14 13 13 14 14 14 14 14 15 14 13 14 12
1 3 6 7 6 7 5 5 5 10 12 12 11 13 12 12 12 12 12 12 12 12 12 12 11 12 12 12 12 12 10 11 8 10 13 14 14 13 13 14 15 14 14 13 14 15 15 14 12
2 2 6 8 6 4 1 5 3 -0 3 11 11 12 13 11 11 12 12 12 12 11 11 12 12 12 12 12 13 12 11 11 10 8 10 13 13 13 13 13 15 15 15 15 13 14 14 15 13
3 3 -1 -0 -1 1 1 -1 -2 -3 -2 10 12 12 13 12 10 12 12 12 12 12 11 12 12 12 12 12 13 13 12 10 9 8 9 10 11 12 13 13 13 15 15 15 14 13 13 15 14
-0 -1 1 -2 3 0 -1 -2 1 -3 -4 -3 11 12 13 11 11 11 12 12 12 12 12 12 12 12 12 12 12 13 12 12 10 9 8 9 10 12 13 14 14 15 15 15 14 14 12 13 13
-0 -0 -2 -1 -3 -0 -0 -2 -5 -4 -3 -4 3 11 11 11 12 11 12 12 12 12 12 12 12 12 12 12 12 12 13 13 12 10 9 9 9 11 13 13 14 16 16 15 15 15 14 13 11
2 -4 -4 -2 -2 -3 -1 -2 -7 -6 -5 -6 -6 9 10 10 11 11 12 12 13 13 13 12 12 12 12 11 12 12 12 13 13 10 8 7 8 9 13 14 14 16 16 16 15 15 15 14 10
Wind_Speed
8 9 7 2 1 1 3 4 2 6 4 6 15 8 8 10 1 4 34 33 33 31 29 27 26 24 23 21 19 19 19 18 18 17 18 19 18 18 18 16 16 16 16 15 15 14 15 14 17
11 9 5 1 2 3 4 6 6 9 11 14 16 13 7 4 8 28 37 36 34 33 32 28 26 23 23 21 19 18 17 17 17 17 18 17 18 17 16 15 15 15 14 14 14 13 13 15 19
9 4 1 1 1 3 3 5 8 12 22 13 7 13 5 4 16 42 40 37 35 33 31 28 25 23 22 21 18 17 16 16 16 17 17 17 17 17 16 16 16 15 14 13 13 15 15 15 17
9 3 2 2 9 9 4 5 19 17 15 4 18 9 7 2 37 30 40 36 35 32 29 27 25 23 22 20 18 16 16 15 15 16 16 16 17 18 18 18 18 17 16 15 14 13 15 15 18
8 1 1 2 3 4 3 15 16 12 5 9 6 6 12 21 19 42 38 35 35 31 29 27 24 22 20 19 17 16 15 15 15 16 16 16 17 18 19 19 18 16 16 15 14 13 13 15 17
2 2 2 4 8 11 3 6 10 13 11 14 19 14 6 12 37 38 35 33 32 30 28 26 23 21 20 18 17 15 14 15 15 16 16 16 17 17 16 16 16 16 15 15 15 14 14 15 16
3 3 3 4 7 6 3 18 17 17 15 8 18 6 16 27 41 38 32 30 28 27 27 27 24 21 19 18 16 14 14 16 16 16 16 16 17 16 14 13 14 14 14 14 15 16 15 16 16
5 2 3 6 7 7 11 17 20 19 6 20 25 8 15 46 40 34 31 27 26 26 26 26 24 21 19 17 15 14 16 17 16 16 17 18 17 16 13 11 11 13 11 11 13 12 15 17 16
3 2 4 10 6 4 6 5 13 12 19 6 8 21 41 50 40 36 30 27 25 25 25 25 23 21 19 17 15 15 16 16 16 16 16 15 16 15 12 10 10 10 9 9 12 11 11 14 14
9 2 7 7 4 4 1 3 14 10 11 21 29 31 52 43 39 38 35 33 29 28 26 25 23 21 19 17 16 16 15 15 14 12 12 11 11 12 11 9 8 10 9 10 7 11 9 9 11
14 6 7 6 10 7 11 16 8 21 9 35 41 42 51 40 35 37 37 32 32 27 27 26 24 20 19 18 17 16 15 15 12 9 8 10 9 8 11 9 5 10 10 11 10 9 9 7 4
6 17 16 11 7 6 7 11 13 13 12 35 50 53 52 42 38 38 37 35 31 27 25 26 24 21 19 18 16 16 16 12 14 11 9 9 8 7 9 12 7 10 9 10 11 11 10 10 7
14 16 19 18 10 15 0 1 12 12 27 36 38 45 48 45 40 39 38 35 32 29 25 28 24 22 23 19 18 17 15 11 11 8 8 8 10 9 10 11 10 9 8 10 8 7 5 8 8
11 25 22 20 16 13 7 2 6 22 39 40 42 40 40 44 44 38 39 39 34 30 25 28 25 23 25 18 20 15 11 9 7 8 7 7 5 8 10 9 9 6 8 8 6 3 7 6 8
26 16 10 12 19 6 11 3 11 31 38 41 40 40 35 42 41 41 41 41 37 32 27 30 27 23 23 22 20 14 7 11 8 10 5 4 2 4 5 5 6 9 10 6 7 6 6 8 7
7 9 13 14 10 2 12 7 17 35 38 35 37 37 36 41 45 38 38 36 37 37 34 32 29 27 25 23 22 16 13 13 11 7 6 1 5 5 4 4 5 8 9 8 6 6 5 6 12
4 8 8 18 20 12 11 5 25 38 37 36 38 37 35 41 45 42 41 39 42 41 37 37 35 30 30 26 23 21 23 15 12 10 8 5 3 6 4 3 7 8 9 8 7 5 4 8 11
5 5 6 9 16 16 21 11 22 38 35 36 37 38 35 38 44 44 42 44 43 41 36 41 40 34 30 27 23 24 25 22 17 11 13 9 6 4 7 6 7 9 8 9 6 7 8 6 10
6 7 10 6 10 25 21 22 20 37 32 33 37 36 39 42 44 45 42 46 42 40 40 41 44 40 33 33 31 30 28 29 24 18 15 14 11 9 6 9 10 10 7 8 6 8 10 9 8
14 11 14 15 12 10 17 19 23 26 33 44 39 38 40 39 43 43 42 50 47 47 45 43 45 41 36 30 27 34 33 30 28 23 16 14 14 13 10 11 12 11 11 9 10 10 9 15 14
15 16 16 11 6 8 7 6 19 24 32 35 38 47 46 44 49 48 46 48 49 50 50 47 46 42 36 31 28 25 32 34 30 29 24 19 15 15 11 9 12 12 10 11 8 11 10 14 14
16 20 18 17 7 5 6 12 9 23 19 24 36 38 42 43 44 48 51 52 51 53 49 51 48 43 38 35 31 29 31 34 35 31 29 23 18 16 12 10 10 12 11 10 7 11 12 12 15
19 14 14 17 5 2 15 6 11 28 23 23 28 40 37 46 46 45 52 54 57 53 54 56 49 45 41 38 35 32 30 31 29 27 24 21 22 18 15 14 13 14 15 13 11 14 15 11 15
13 11 9 6 4 10 16 6 9 21 29 29 35 37 42 41 44 47 49 51 56 56 55 56 52 48 44 40 37 35 34 30 30 27 25 24 23 20 17 15 14 15 17 17 15 15 16 13 13
13 7 7 4 7 9 9 6 13 26 29 35 36 38 44 43 48 51 50 50 52 56 55 56 53 51 47 43 40 38 37 32 31 30 29 25 25 23 21 20 18 16 17 16 18 18 16 14 15
14 11 6 9 5 7 6 9 12 12 22 53 59 54 51 47 44 47 53 55 56 59 56 56 55 52 50 46 42 38 37 35 33 31 30 31 26 24 20 21 20 17 18 17 18 19 17 16 14
11 18 11 5 2 4 4 5 9 12 7 24 36 39 42 48 48 47 50 57 59 59 61 59 57 54 51 48 44 40 39 38 37 34 32 30 29 27 23 23 23 20 18 19 18 19 19 17 16
18 9 9 4 12 5 5 6 10 11 12 14 29 40 48 49 47 47 51 56 57 63 63 60 58 55 52 49 45 42 40 40 39 37 33 32 31 27 26 23 22 23 19 20 19 18 20 21 19
4 15 6 7 6 10 4 10 8 11 12 10 20 48 51 53 52 53 49 55 60 61 61 60 58 54 52 48 45 44 43 42 42 41 37 33 30 31 29 27 24 24 26 22 25 23 19 23 24
21 8 10 9 10 3 4 12 6 12 12 11 17 46 53 56 55 55 47 55 50 51 56 59 57 55 51 46 47 45 43 40 42 43 41 36 35 34 32 30 31 30 23 27 28 27 24 23 26
Wind_Direction
145 157 153 165 261 167 257 201 101 157 155 203 157 141 115 39 38 144 148 152 152 146 144 144 142 136 131 128 122 116 107 104 101 103 103 100 101 100 99 103 110 116 107 105 104 98 93 88 98
157 158 151 301 283 12 284 142 181 185 195 140 102 111 68 87 108 137 148 151 149 146 144 146 143 138 132 127 124 115 108 104 100 103 101 99 97 101 98 98 103 107 108 108 102 95 97 94 104
167 152 351 59 278 221 252 176 203 190 148 130 113 71 68 93 147 143 150 149 149 146 146 144 144 141 135 130 124 117 110 104 102 105 97 99 98 98 99 98 99 100 101 101 100 94 94 106 114
162 195 254 217 258 251 272 284 140 139 139 84 110 69 73 196 140 151 147 150 148 147 147 145 146 142 138 132 126 119 114 108 108 108 105 101 100 97 95 94 95 94 92 90 91 93 91 109 123
166 204 96 279 281 269 290 319 158 136 98 119 124 89 105 136 152 148 146 151 149 148 147 147 146 143 139 132 129 121 116 118 114 109 105 100 100 97 95 92 88 85 86 88 90 90 94 113 129
145 105 14 17 325 310 337 349 236 124 110 114 102 105 112 156 152 143 147 150 151 149 150 151 149 147 140 137 130 123 122 123 114 109 108 106 107 103 98 95 88 89 87 87 84 85 101 114 130
145 111 118 306 310 332 119 214 210 141 132 122 134 99 131 149 147 144 153 150 153 154 154 153 154 150 145 141 132 125 129 121 113 114 114 113 112 108 101 100 93 91 89 90 87 89 99 113 125
151 111 87 320 326 304 316 198 152 138 124 134 135 147 154 156 148 145 152 156 159 162 161 158 157 153 149 143 133 128 127 121 120 121 120 119 116 112 104 99 91 90 90 87 90 94 95 106 123
159 110 144 188 222 257 345 160 162 120 140 136 193 159 156 149 147 148 154 161 161 167 168 166 159 158 152 146 137 132 125 125 127 128 123 120 120 116 109 104 103 97 98 105 97 111 106 110 124
201 184 214 210 225 156 131 172 130 137 131 109 110 132 148 150 152 154 164 171 170 171 174 170 165 162 157 149 143 135 134 136 137 135 135 127 127 122 121 116 108 110 112 117 109 118 115 107 121
198 216 158 204 219 216 197 136 139 136 149 152 144 150 158 158 160 163 170 178 173 169 176 176 170 166 160 153 149 143 138 133 128 124 137 135 146 127 114 111 114 124 113 109 116 110 99 95 144
262 231 219 211 236 231 210 168 179 186 186 168 160 158 164 165 171 174 172 180 177 175 177 180 175 171 162 154 153 141 139 137 131 104 142 119 124 121 125 117 123 127 125 112 116 122 89 77 100
237 248 236 225 219 232 109 145 208 185 149 151 151 159 163 171 175 177 175 182 182 181 182 184 176 174 160 145 152 152 142 136 123 116 128 133 147 131 111 152 117 134 123 118 108 144 109 109 103
239 236 256 200 211 232 187 275 2 149 149 150 156 164 169 175 176 180 181 183 188 186 184 180 179 176 165 157 162 154 157 166 164 156 147 104 139 133 155 152 131 139 157 142 101 151 136 109 103
246 267 251 191 214 182 156 250 156 160 154 157 166 168 174 180 182 182 188 188 191 193 186 184 179 177 171 160 171 179 185 191 179 190 186 130 34 197 191 142 134 132 150 140 102 110 137 152 125
226 229 242 211 162 202 158 216 160 166 160 165 172 174 178 183 188 187 194 191 192 194 196 191 185 182 177 179 183 186 188 180 181 192 195 227 316 228 181 117 135 151 163 163 135 144 120 117 147
210 240 234 220 185 154 195 185 164 174 167 168 175 180 183 188 191 195 196 197 196 196 203 200 195 190 186 191 193 189 190 185 181 201 211 233 292 217 208 221 187 169 161 155 130 138 160 145 156
201 195 217 229 197 184 199 212 166 178 173 172 176 183 188 193 200 201 201 198 197 203 206 207 202 197 196 201 203 196 195 191 193 193 214 229 239 227 214 190 196 185 172 168 154 151 160 156 176
252 216 243 250 202 188 206 218 176 178 177 177 185 188 190 192 200 208 206 198 200 205 206 209 204 199 197 204 208 204 198 196 199 201 200 214 228 235 219 195 175 175 188 192 193 190 171 181 166
235 246 252 267 266 179 210 218 176 178 184 184 182 190 197 194 199 203 207 206 203 205 208 207 205 202 202 206 212 211 207 203 203 206 211 211 220 231 232 224 210 191 180 179 176 168 171 166 165
226 229 246 235 298 293 165 194 167 202 184 186 187 196 192 194 195 200 204 206 206 208 207 209 206 205 207 211 212 210 214 214 211 209 212 216 218 233 242 231 210 191 195 191 189 191 186 183 181
222 227 240 255 249 244 203 235 170 185 186 191 194 198 198 194 196 200 207 207 207 212 211 210 209 209 213 216 214 211 208 208 209 208 213 219 221 229 245 248 220 215 209 205 210 203 204 190 196
224 231 231 248 224 194 271 223 225 176 181 199 205 210 204 196 195 197 205 209 210 210 213 208 211 212 217 220 222 221 218 216 213 208 206 215 225 232 245 249 225 215 213 210 214 204 204 200 200
209 225 244 242 192 242 248 228 243 179 186 202 213 211 211 202 200 202 201 200 205 210 209 207 211 214 219 222 225 227 224 219 217 213 213 216 222 228 230 232 222 215 220 224 211 207 208 213 200
223 160 228 260 227 233 219 221 241 181 197 196 209 211 206 203 202 201 200 197 202 207 207 209 211 214 218 222 227 229 227 223 219 215 216 216 217 224 224 228 230 223 221 223 220 216 212 209 214
221 196 166 210 207 222 216 207 240 228 191 199 204 203 199 204 201 204 201 198 203 210 210 211 212 215 219 222 227 230 229 225 223 221 220 222 225 227 227 231 234 236 230 226 225 223 220 219 227
202 215 185 126 212 173 219 210 269 255 176 187 200 198 201 209 201 207 202 201 202 208 213 215 215 217 220 223 226 229 230 227 226 224 223 224 226 228 230 235 239 239 234 226 232 234 235 230 229
202 159 188 178 220 241 262 210 212 227 242 176 192 198 203 209 203 204 199 200 203 211 217 217 220 218 220 222 225 229 231 230 230 229 224 223 223 225 226 229 233 237 235 229 225 234 237 238 233
174 205 194 161 162 225 228 245 198 219 231 217 179 195 200 204 206 204 199 202 205 209 213 218 218 220 220 223 227 229 230 231 232 232 229 227 226 224 229 228 232 238 240 236 233 234 240 240 239
222 187 185 204 213 199 191 256 208 214 218 227 228 193 198 199 201 205 200 200 200 199 210 218 219 219 222 224 225 229 231 232 233 232 233 229 227 226 227 231 234 239 242 238 237 238 243 245 241
Height
1515 1515 1516 1516 1523 1519 1515 1509 1498 1505 1501 1498 1501 1502 1506 1512 1512 1523 1522 1529 1534 1538 1543 1547 1550 1551 1553 1556 1558 1559 1560 1561 1562 1563 1563 1563 1564 1565 1566 1566 1567 1568 1568 1568 1570 1571 1571 1571 1571
1514 1514 1515 1516 1518 1521 1510 1499 1502 1496 1496 1498 1500 1502 1506 1515 1514 1517 1523 1531 1535 1539 1543 1547 1551 1553 1555 1557 1559 1560 1561 1563 1564 1565 1565 1566 1566 1567 1567 1568 1569 1569 1570 1571 1571 1572 1572 1573 1573
1515 1515 1516 1514 1517 1521 1514 1497 1494 1493 1496 1496 1501 1505 1510 1514 1515 1519 1525 1532 1537 1541 1544 1548 1552 1555 1557 1559 1561 1562 1563 1564 1566 1566 1567 1567 1567 1568 1569 1570 1570 1571 1572 1572 1573 1573 1574 1575 1575
1513 1516 1517 1514 1513 1506 1503 1493 1492 1495 1498 1499 1501 1510 1515 1516 1518 1521 1528 1534 1539 1542 1547 1550 1553 1556 1558 1560 1562 1563 1564 1566 1567 1568 1569 1569 1570 1570 1571 1572 1573 1573 1574 1574 1574 1575 1575 1576 1577
1514 1515 1520 1520 1517 1507 1503 1502 1493 1494 1497 1500 1501 1515 1517 1522 1523 1527 1532 1537 1540 1545 1549 1552 1555 1557 1560 1562 1564 1565 1565 1567 1568 1569 1570 1571 1572 1573 1573 1574 1575 1575 1576 1576 1576 1576 1576 1577 1578
1514 1515 1522 1526 1516 1502 1501 1501 1498 1495 1499 1503 1506 1511 1522 1524 1527 1530 1535 1539 1543 1547 1550 1554 1557 1559 1561 1563 1565 1566 1567 1569 1570 1570 1572 1573 1574 1575 1576 1576 1577 1578 1578 1579 1578 1577 1578 1578 1580
1513 1516 1526 1520 1513 1504 1501 1493 1499 1494 1498 1503 1504 1512 1522 1527 1531 1533 1536 1542 1546 1549 1552 1555 1558 1561 1563 1565 1566 1568 1569 1570 1571 1572 1573 1574 1575 1576 1578 1579 1579 1580 1580 1581 1581 1580 1579 1581 1582
1508 1513 1518 1515 1514 1512 1495 1499 1493 1493 1499 1501 1504 1511 1518 1525 1532 1536 1540 1544 1548 1551 1554 1556 1559 1562 1564 1566 1567 1569 1571 1571 1573 1574 1575 1575 1576 1577 1579 1580 1581 1581 1582 1583 1583 1583 1583 1583 1584
1509 1512 1518 1517 1515 1512 1501 1497 1500 1497 1501 1502 1503 1504 1512 1523 1532 1536 1540 1545 1549 1552 1555 1557 1560 1563 1565 1567 1569 1571 1572 1572 1574 1575 1576 1577 1577 1578 1579 1581 1582 1583 1583 1583 1584 1585 1585 1585 1587
1507 1514 1509 1501 1498 1499 1498 1495 1496 1500 1502 1505 1506 1512 1519 1525 1530 1534 1538 1541 1547 1550 1554 1558 1561 1564 1566 1568 1570 1571 1572 1574 1576 1577 1578 1579 1580 1580 1580 1581 1583 1584 1585 1586 1585 1586 1587 1588 1588
1499 1502 1497 1495 1494 1495 1495 1494 1496 1499 1506 1494 1500 1513 1521 1525 1530 1535 1539 1542 1545 1550 1554 1557 1561 1564 1566 1568 1570 1571 1573 1574 1577 1578 1579 1580 1582 1581 1581 1583 1584 1585 1586 1587 1587 1587 1588 1589 1590
1496 1489 1492 1490 1487 1487 1488 1493 1493 1491 1490 1497 1496 1502 1514 1524 1530 1533 1538 1541 1545 1549 1554 1557 1561 1564 1567 1569 1571 1572 1573 1575 1577 1577 1579 1581 1583 1582 1583 1584 1585 1586 1587 1588 1588 1588 1589 1590 1591
1491 1484 1484 1487 1485 1482 1482 1491 1493 1494 1495 1502 1509 1512 1516 1522 1529 1535 1539 1543 1546 1549 1553 1557 1561 1564 1567 1569 1571 1573 1573 1575 1576 1578 1580 1582 1583 1583 1583 1585 1586 1586 1587 1589 1589 1589 1590 1591 1592
1478 1483 1480 1485 1487 1483 1487 1490 1493 1498 1495 1500 1507 1514 1518 1521 1525 1532 1537 1541 1545 1549 1552 1556 1560 1563 1566 1568 1570 1572 1573 1575 1576 1579 1581 1583 1583 1583 1584 1585 1586 1587 1588 1589 1588 1589 1591 1593 1592
1480 1485 1479 1482 1483 1483 1486 1491 1493 1496 1498 1501 1507 1511 1517 1521 1526 1528 1532 1537 1542 1547 1551 1554 1558 1562 1564 1567 1569 1571 1572 1573 1576 1579 1580 1581 1583 1583 1584 1585 1587 1588 1588 1589 1588 1590 1591 1593 1594
1479 1481 1486 1475 1479 1481 1484 1498 1494 1496 1496 1503 1508 1512 1515 1519 1524 1529 1532 1536 1541 1545 1549 1553 1557 1560 1563 1565 1568 1570 1572 1572 1575 1577 1579 1580 1582 1583 1584 1586 1587 1588 1589 1590 1590 1591 1592 1593 1594
1477 1490 1482 1472 1470 1474 1487 1491 1488 1495 1496 1500 1505 1510 1514 1518 1522 1525 1529 1534 1538 1542 1546 1551 1555 1558 1561 1564 1567 1569 1572 1572 1574 1576 1578 1581 1582 1583 1584 1585 1587 1589 1590 1590 1591 1591 1592 1593 1595
1486 1484 1476 1474 1465 1469 1477 1480 1482 1490 1495 1497 1502 1506 1511 1515 1518 1522 1526 1531 1536 1539 1543 1548 1552 1555 1559 1562 1565 1568 1570 1572 1573 1575 1577 1580 1581 1583 1584 1586 1586 1588 1589 1590 1591 1591 1592 1593 1595
1469 1472 1475 1461 1453 1468 1469 1470 1475 1483 1493 1495 1496 1502 1503 1504 1510 1519 1523 1527 1532 1536 1540 1543 1548 1552 1556 1559 1561 1564 1566 1570 1572 1574 1577 1579 1581 1583 1584 1585 1587 1588 1589 1590 1591 1591 1592 1593 1594
1466 1471 1468 1457 1451 1457 1459 1463 1466 1478 1477 1478 1486 1494 1496 1500 1505 1511 1517 1523 1527 1529 1533 1538 1543 1548 1552 1555 1558 1561 1565 1568 1572 1573 1575 1577 1580 1582 1583 1585 1586 1588 1589 1590 1591 1592 1592 1593 1595
1460 1466 1464 1464 1452 1448 1450 1463 1472 1479 1477 1479 1481 1478 1481 1484 1490 1501 1509 1514 1521 1523 1525 1531 1537 1542 1547 1551 1555 1558 1563 1566 1569 1570 1572 1575 1578 1580 1582 1583 1585 1587 1588 1589 1591 1592 1593 1593 1595
1463 1446 1453 1455 1465 1482 1446 1481 1465 1469 1474 1473 1473 1476 1477 1479 1482 1490 1499 1507 1511 1515 1521 1525 1532 1538 1542 1546 1550 1553 1555 1558 1561 1565 1569 1572 1575 1578 1580 1582 1583 1584 1586 1588 1589 1590 1592 1593 1594
1442 1443 1450 1450 1464 1467 1460 1472 1450 1455 1472 1466 1466 1466 1470 1471 1475 1480 1485 1494 1502 1509 1515 1520 1526 1532 1536 1541 1545 1549 1551 1554 1559 1563 1567 1570 1573 1575 1577 1580 1581 1582 1584 1586 1588 1589 1591 1592 1593
1435 1444 1448 1450 1462 1479 1460 1465 1455 1456 1455 1457 1453 1457 1458 1464 1469 1476 1481 1489 1495 1502 1508 1515 1520 1525 1530 1535 1539 1543 1547 1550 1555 1559 1562 1566 1569 1572 1575 1577 1579 1581 1582 1584 1586 1587 1589 1591 1592
1435 1451 1476 1486 1480 1481 1454 1466 1443 1435 1438 1440 1444 1450 1452 1455 1459 1465 1475 1482 1488 1493 1499 1507 1513 1518 1524 1529 1533 1538 1542 1547 1550 1554 1557 1561 1565 1568 1571 1574 1576 1577 1580 1581 1584 1586 1587 1589 1591
1431 1441 1472 1486 1485 1474 1450 1460 1434 1417 1421 1423 1430 1433 1442 1448 1453 1461 1465 1473 1479 1484 1491 1499 1505 1511 1517 1523 1527 1532 1537 1542 1546 1549 1553 1557 1560 1564 1568 1570 1573 1575 1577 1579 1581 1583 1586 1587 1589
1423 1431 1432 1459 1457 1470 1449 1433 1421 1412 1417 1422 1431 1438 1442 1443 1447 1452 1458 1465 1470 1476 1482 1489 1497 1504 1510 1515 1521 1526 1530 1535 1539 1543 1548 1553 1557 1560 1564 1566 1569 1571 1574 1577 1579 1581 1583 1585 1588
1400 1411 1439 1450 1468 1478 1453 1441 1432 1418 1410 1416 1421 1427 1429 1435 1440 1446 1451 1456 1464 1467 1474 1482 1490 1496 1502 1510 1515 1519 1524 1529 1534 1538 1543 1547 1551 1555 1559 1562 1565 1568 1571 1574 1576 1578 1580 1582 1584
1406 1405 1412 1424 1448 1453 1469 1431 1406 1405 1400 1401 1407 1412 1419 1426 1433 1437 1442 1448 1455 1460 1468 1475 1483 1491 1497 1503 1508 1513 1518 1523 1527 1531 1537 1541 1546 1550 1553 1557 1560 1563 1567 1570 1572 1573 1575 1576 1578
1385 1401 1409 1424 1443 1443 1446 1417 1384 1388 1389 1390 1393 1401 1405 1412 1422 1430 1435 1441 1451 1457 1463 1469 1476 1483 1489 1496 1501 1506 1512 1517 1520 1524 1529 1535 1539 1544 1548 1552 1556 1559 1561 1563 1566 1568 1570 1571 1572